CAPE
0 0 0 0 0 21 183 246 938 1307 1162 852 722 779 691 626 715 807 918 812 685 815 805 689 740 858 804 923 944 1029 914 1170 1083 1014 689 764 762 798 932 770 580 614 455
0 0 0 0 0 0 0 15 262 644 1204 1608 1782 982 831 803 729 675 698 651 539 633 648 669 633 521 625 759 898 1047 1065 993 985 1070 997 721 665 902 905 732 556 440 471
0 0 0 0 0 0 0 0 10 150 319 744 970 1240 1262 1063 909 980 923 660 608 623 656 595 624 617 592 589 679 742 693 879 667 658 820 827 666 641 681 687 683 597 252
0 0 0 0 0 0 0 0 0 0 110 277 461 869 1133 1432 1171 1055 926 922 772 649 753 773 822 660 599 577 505 549 746 959 839 697 813 921 769 871 451 615 645 367 322
0 0 0 0 0 0 0 0 0 0 0 51 0 35 536 1194 1108 1282 1141 779 707 674 747 789 859 928 726 692 894 1093 1054 1118 1157 1126 948 799 600 555 615 590 398 356 253
0 0 0 0 0 0 0 0 0 0 0 0 0 0 0 284 828 1025 1021 866 879 724 678 779 759 708 696 736 756 709 762 926 879 807 798 834 875 851 788 491 442 258 273
0 0 0 4 0 0 0 0 0 0 0 0 0 0 0 0 0 334 889 984 893 760 502 678 415 708 591 514 646 717 692 574 421 833 829 823 872 887 891 539 183 297 389
0 0 0 0 0 0 0 0 0 0 0 0 0 0 0 0 0 9 135 873 890 744 516 339 66 39 66 558 789 782 809 647 560 498 465 823 1021 900 851 777 774 410 398
0 0 0 0 0 0 0 0 0 0 0 0 0 0 0 0 0 0 82 402 799 754 689 428 18 0 0 110 835 836 838 681 466 595 558 287 278 308 361 318 386 370 193
0 0 0 0 0 0 0 0 0 0 0 0 0 0 0 0 0 2 0 554 709 1295 1006 789 371 235 102 96 58 193 323 474 428 367 218 108 60 33 108 164 549 205 153
0 0 0 0 0 0 0 0 0 0 0 0 0 0 0 0 0 1 0 351 634 1204 756 805 688 510 141 64 27 161 233 251 188 73 54 24 35 72 17 133 228 178 66
0 0 0 0 0 0 0 0 0 0 0 0 0 0 2 2 0 0 14 395 926 995 769 848 679 487 124 0 0 45 168 157 51 33 14 22 83 153 184 54 81 66 76
0 0 0 0 0 0 0 0 0 0 0 0 0 0 5 8 15 75 336 660 946 931 938 887 600 267 212 148 235 185 83 56 41 45 72 123 87 103 109 160 68 66 56
0 1 0 0 0 0 0 0 0 0 0 0 2 2 11 19 334 929 641 1019 1059 916 879 792 475 296 271 250 265 152 105 106 65 51 97 108 76 65 35 80 99 54 45
0 0 1 0 1 4 2 5 11 1 0 0 2 2 22 144 436 645 669 1197 1030 1051 1002 662 437 394 399 352 521 236 84 57 22 42 35 26 8 12 8 39 125 62 77
0 0 2 0 11 19 18 56 24 7 0 0 1 0 122 113 45 423 902 937 892 873 670 583 539 635 441 198 364 206 57 3 14 17 5 13 7 0 2 3 44 38 20
0 0 1 0 0 1 51 118 299 225 381 410 319 340 283 245 373 803 715 779 604 585 492 579 470 216 171 105 49 2 30 16 10 2 0 0 0 0 1 5 8 59 76
20 23 0 0 0 4 35 98 204 378 336 321 582 573 702 760 693 711 491 495 489 345 522 328 167 148 114 42 77 97 61 337 7 14 1 1 6 6 4 7 4 6 9
12 16 10 0 0 0 17 188 188 340 356 342 388 363 358 397 394 380 303 256 319 247 135 97 80 33 17 23 34 25 21 35 62 35 7 0 19 23 7 13 9 17 22
24 12 10 11 3 0 0 6 51 98 63 151 145 144 166 243 288 378 263 202 191 74 21 23 0 1 3 6 10 12 29 16 2 0 0 0 0 0 5 2 2 0 0
6 0 1 11 17 6 19 1 0 0 0 0 0 0 4 14 80 119 113 11 43 31 22 30 27 2 9 19 7 4 3 4 0 0 0 0 0 0 6 0 0 0 0
17 5 9 20 2 4 13 11 23 1 51 0 0 0 7 10 3 5 4 4 3 3 7 3 2 2 3 26 42 38 58 45 42 29 11 1 0 0 0 0 0 0 0
31 30 5 6 17 11 9 9 11 16 10 5 6 1 0 0 0 0 1 0 0 0 14 2 24 36 61 59 39 45 36 5 0 3 5 7 14 2 0 0 0 0 0
15 42 34 4 3 3 6 1 3 7 14 18 18 10 5 2 2 3 0 0 0 0 8 0 0 0 0 0 0 0 0 0 0 0 0 0 0 0 8 7 7 3 8
1 0 7 4 2 0 0 0 0 0 0 0 0 0 0 1 1 0 1 0 0 1 0 0 0 0 0 0 0 0 0 0 0 0 0 0 0 0 0 0 4 0 0
0 0 0 0 0 0 0 0 0 0 0 0 0 0 0 0 0 0 0 0 0 0 0 0 0 0 0 0 0 0 0 0 0 0 0 0 0 0 0 0 0 0 0
CIN
-0 -0 -0 -0 -0 -224 -236 -218 -65 -43 -67 -92 -118 -116 -80 -95 -54 -33 -19 -20 -28 -16 -6 -112 -107 -93 -84 -71 -73 -57 -24 -8 -5 -26 -33 -39 -37 -17 -65 -97 -46 -99 -103
-0 -0 -0 -0 -0 -0 -0 -335 -212 -109 -44 -11 -14 -77 -109 -112 -79 -69 -40 -116 -34 -16 -22 -4 -9 -23 -126 -107 -81 -58 -47 -45 -22 -10 -31 -64 -37 -90 -98 -73 -80 -39 -98
-0 -0 -0 -0 -0 -0 -0 -0 -49 -264 -197 -104 -62 -38 -38 -57 -52 -50 -48 -102 -140 -124 -18 -96 -32 -11 -100 -123 -128 -107 -85 -63 -65 -42 -40 -51 -98 -110 -61 -41 -34 -106 -90
-0 -0 -0 -0 -0 -0 -0 -0 -0 -0 -264 -160 -114 -60 -33 -1 -18 -36 -36 -62 -53 -134 -110 -28 -12 -66 -25 -117 -21 -136 -110 -64 -49 -52 -30 -31 -55 -66 -75 -70 -58 -36 -110
-0 -0 -0 -0 -0 -0 -0 -0 -0 -0 -0 -314 -0 -52 -65 -1 -9 -4 -11 -45 -77 -72 -112 -100 -51 -11 -15 -72 -83 -76 -73 -53 -28 -14 -16 -22 -77 -102 -91 -100 -49 -42 -67
-0 -0 -0 -0 -0 -0 -0 -0 -0 -0 -0 -0 -0 -0 -0 -114 -8 -1 -2 -5 -27 -41 -21 -33 -67 -39 -27 -57 -51 -42 -81 -60 -39 -28 -29 -14 -35 -42 -61 -93 -83 -85 -76
-0 -0 -0 -0 -0 -0 -0 -0 -0 -0 -0 -0 -0 -0 -0 -0 -0 -63 -3 -1 -2 -12 -11 -0 -35 -1 -16 -61 -30 -23 -18 -14 -25 -41 -18 -17 -15 -42 -45 -61 -52 -66 -49
-0 -0 -0 -0 -0 -0 -0 -0 -0 -0 -0 -0 -0 -0 -0 -0 -0 -53 -121 -2 -4 -11 -97 -72 -85 -64 -200 -35 -62 -57 -42 -50 -57 -16 -14 -45 -24 -40 -40 -41 -24 -19 -35
-0 -0 -0 -0 -0 -0 -0 -0 -0 -0 -0 -0 -0 -0 -0 -0 -0 -0 -135 -34 -3 -19 -50 -52 -146 -0 -0 -210 -14 -12 -38 -83 -127 -54 -26 -58 -62 -36 -15 -33 -48 -25 -49
-0 -0 -0 -0 -0 -0 -0 -0 -0 -0 -0 -0 -0 -0 -0 -0 -0 -0 -0 -0 -0 -1 -12 -28 -33 -37 -149 -184 -63 -20 -11 -7 -5 -20 -36 -49 -75 -136 -16 -9 -4 -31 -27
-0 -0 -0 -0 -0 -0 -0 -0 -0 -0 -0 -0 -0 -0 -0 -0 -0 -0 -0 -10 -0 -0 -17 -38 -34 -39 -63 -43 -59 -9 -17 -60 -59 -44 -78 -162 -131 -107 -124 -73 -18 -9 -21
-0 -0 -0 -0 -0 -0 -0 -0 -0 -0 -0 -0 -0 -0 -0 -0 -0 -0 -232 -32 -0 -0 -3 -15 -27 -39 -41 -0 -0 -85 -18 -51 -123 -45 -124 -150 -148 -33 -29 -30 -55 -46 -45
-0 -0 -0 -0 -0 -0 -0 -0 -0 -0 -0 -0 -0 -0 -0 -0 -0 -121 -65 -14 -0 -0 -0 -3 -4 -26 -59 -53 -5 -12 -32 -67 -109 -27 -108 -47 -16 -45 -19 -32 -54 -62 -35
-0 -0 -0 -0 -0 -0 -0 -0 -0 -0 -0 -0 -0 -0 -0 -0 -15 -0 -19 -0 -0 -0 -0 -0 -8 -33 -23 -23 -13 -22 -10 -6 -27 -22 -14 -9 -35 -7 -9 -5 -4 -29 -33
-0 -0 -0 -0 -0 -0 -0 -0 -0 -0 -0 -0 -0 -0 -0 -9 -1 -1 -5 -0 -3 -0 -0 -0 -10 -21 -6 -0 -0 -20 -47 -49 -55 -11 -12 -15 -0 -32 -1 -13 -5 -5 -0
-0 -0 -0 -0 -0 -0 -0 -51 -116 -75 -0 -0 -0 -0 -44 -42 -81 -17 -0 -0 -0 -0 -0 -0 -0 -0 -4 -34 -6 -27 -47 -20 -1 -0 -0 -0 -0 -0 -0 -1 -0 -3 -0
-0 -0 -0 -0 -0 -0 -2 -0 -0 -11 -0 -3 -13 -0 -15 -43 -3 -0 -0 -0 -0 -0 -0 -0 -0 -20 -31 -54 -42 -66 -90 -137 -127 -17 -0 -0 -0 -0 -0 -0 -0 -0 -0
-21 -4 -0 -0 -0 -8 -1 -1 -4 -1 -0 -3 -1 -16 -0 -3 -0 -0 -0 -2 -0 -1 -6 -6 -21 -27 -16 -36 -39 -19 -33 -3 -15 -11 -2 -7 -8 -4 -12 -4 -2 -4 -4
-1 -5 -2 -0 -0 -0 -2 -0 -1 -0 -0 -0 -0 -0 -0 -0 -4 -0 -0 -0 -0 -0 -15 -27 -23 -37 -48 -65 -33 -6 -0 -3 -1 -0 -4 -0 -12 -0 -3 -1 -8 -23 -0
-0 -9 -8 -2 -4 -0 -0 -13 -7 -0 -0 -8 -0 -0 -0 -0 -0 -0 -0 -0 -0 -12 -38 -33 -0 -0 -0 -1 -0 -0 -0 -14 -12 -0 -0 -0 -0 -5 -1 -0 -0 -0 -0
-1 -6 -9 -6 -2 -110 -30 -0 -0 -0 -0 -0 -0 -0 -0 -1 -2 -0 -0 -0 -34 -0 -0 -0 -3 -6 -27 -0 -10 -0 -0 -0 -1 -0 -0 -0 -0 -0 -0 -3 -0 -0 -0
-2 -1 -3 -1 -7 -7 -3 -4 -23 -1 -12 -0 -0 -0 -2 -3 -15 -27 -0 -0 -0 -0 -16 -0 -0 -0 -0 -63 -16 -7 -6 -11 -12 -11 -4 -1 -0 -0 -0 -0 -0 -0 -0
-2 -3 -6 -4 -4 -3 -5 -5 -2 -1 -2 -2 -46 -53 -0 -0 -0 -0 -0 -0 -0 -0 -45 -42 -47 -38 -27 -22 -17 -14 -13 -6 -0 -8 -38 -61 -5 -0 -0 -0 -0 -0 -0
-1 -2 -5 -3 -17 -13 -15 -4 -17 -15 -9 -1 -0 -2 -1 -2 -1 -1 -0 -0 -0 -0 -15 -0 -0 -0 -0 -0 -0 -0 -0 -0 -0 -0 -0 -0 -0 -0 -0 -3 -1 -3 -2
-4 -5 -6 -5 -3 -0 -0 -0 -0 -0 -0 -0 -0 -0 -0 -4 -3 -0 -1 -3 -0 -3 -0 -0 -0 -0 -0 -0 -0 -0 -0 -0 -0 -0 -0 -0 -0 -0 -0 -0 -1 -0 -0
-0 -0 -0 -0 -0 -0 -0 -0 -0 -0 -0 -0 -0 -0 -0 -0 -0 -0 -0 -0 -0 -0 -0 -0 -0 -0 -0 -0 -0 -0 -0 -0 -0 -0 -0 -0 -0 -0 -0 -0 -0 -0 -0
Wind_Speed
nan nan nan nan nan nan 25 27 32 28 27 24 25 22 20 24 27 28 26 26 27 25 27 25 21 23 25 25 27 27 26 26 14 17 22 22 19 13 12 13 14 15 16
nan nan nan nan nan nan nan nan 32 34 33 32 28 25 22 23 24 27 29 32 32 31 30 32 29 32 28 28 30 28 29 31 26 13 20 24 22 21 18 18 19 20 20
nan nan nan nan nan nan nan nan nan 36 30 32 37 31 26 23 26 26 25 28 36 36 35 37 35 39 35 35 34 34 33 34 33 26 20 27 27 28 24 24 24 24 24
nan nan nan nan nan nan nan nan nan nan 37 33 36 34 27 26 28 28 31 31 29 34 37 39 38 40 38 39 39 37 36 36 36 32 25 24 27 30 31 26 23 28 24
nan nan nan nan nan nan nan nan nan nan nan nan nan nan 37 35 38 34 36 33 37 37 37 41 42 41 39 41 44 40 39 37 36 34 30 29 27 29 30 32 28 26 25
nan nan nan nan nan nan nan nan nan nan nan nan nan nan nan 44 42 36 39 40 42 41 39 43 44 45 41 38 39 35 43 39 36 37 32 30 24 28 33 34 29 27 26
nan nan nan nan nan nan nan nan nan nan nan nan nan nan nan nan nan 44 41 49 56 59 49 46 54 62 48 48 39 34 36 38 37 39 34 31 27 29 33 33 35 32 27
nan nan nan nan nan nan nan nan nan nan nan nan nan nan nan nan nan nan 40 49 59 55 59 55 nan nan nan 48 46 43 39 41 43 44 38 31 35 35 39 37 35 34 33
nan nan nan nan nan nan nan nan nan nan nan nan nan nan nan nan nan nan nan 52 52 54 57 58 nan nan nan 24 30 44 45 36 48 49 46 40 38 42 43 47 43 42 33
nan nan nan nan nan nan nan nan nan nan nan nan nan nan nan nan nan nan nan 56 55 53 49 49 49 46 48 nan nan 38 23 27 49 52 53 48 nan nan 49 45 43 41 43
nan nan nan nan nan nan nan nan nan nan nan nan nan nan nan nan nan nan nan 54 54 52 45 41 41 44 41 nan nan 34 33 31 38 nan nan nan nan nan nan 39 46 40 nan
nan nan nan nan nan nan nan nan nan nan nan nan nan nan nan nan nan nan nan 47 48 50 46 42 37 40 35 nan nan nan 23 29 nan nan nan nan nan 24 29 nan nan nan nan
nan nan nan nan nan nan nan nan nan nan nan nan nan nan nan nan nan nan 44 49 42 48 45 46 42 41 39 35 30 24 nan nan nan nan nan 30 nan 34 27 27 nan nan nan
nan nan nan nan nan nan nan nan nan nan nan nan nan nan nan nan 53 48 53 55 46 50 55 49 44 41 38 38 35 28 30 28 nan nan nan 31 nan nan nan nan nan nan nan
nan nan nan nan nan nan nan nan nan nan nan nan nan nan nan 48 49 44 46 53 50 47 50 48 44 41 40 41 38 33 nan nan nan nan nan nan nan nan nan nan 41 nan nan
nan nan nan nan nan nan nan nan nan nan nan nan nan nan 30 34 nan 37 40 46 48 52 49 48 47 42 40 40 38 37 nan nan nan nan nan nan nan nan nan nan nan nan nan
nan nan nan nan nan nan nan 15 16 23 26 27 23 20 11 16 31 38 42 47 50 48 46 43 44 42 41 40 nan nan nan nan nan nan nan nan nan nan nan nan nan nan nan
nan nan nan nan nan nan nan nan 14 15 19 21 27 35 34 29 35 41 44 48 47 45 45 43 42 43 44 nan nan nan nan 45 nan nan nan nan nan nan nan nan nan nan nan
nan nan nan nan nan nan nan 10 12 21 25 25 32 36 42 35 42 45 42 43 42 45 44 nan nan nan nan nan nan nan nan nan nan nan nan nan nan nan nan nan nan nan nan
nan nan nan nan nan nan nan nan nan nan nan 33 31 35 41 37 49 44 44 43 42 nan nan nan nan nan nan nan nan nan nan nan nan nan nan nan nan nan nan nan nan nan nan
nan nan nan nan nan nan nan nan nan nan nan nan nan nan nan nan nan 43 44 nan nan nan nan nan nan nan nan nan nan nan nan nan nan nan nan nan nan nan nan nan nan nan nan
nan nan nan nan nan nan nan nan nan nan nan nan nan nan nan nan nan nan nan nan nan nan nan nan nan nan nan nan nan nan nan nan nan nan nan nan nan nan nan nan nan nan nan
nan nan nan nan nan nan nan nan nan nan nan nan nan nan nan nan nan nan nan nan nan nan nan nan nan nan nan nan nan nan nan nan nan nan nan nan nan nan nan nan nan nan nan
nan nan nan nan nan nan nan nan nan nan nan nan nan nan nan nan nan nan nan nan nan nan nan nan nan nan nan nan nan nan nan nan nan nan nan nan nan nan nan nan nan nan nan
nan nan nan nan nan nan nan nan nan nan nan nan nan nan nan nan nan nan nan nan nan nan nan nan nan nan nan nan nan nan nan nan nan nan nan nan nan nan nan nan nan nan nan
nan nan nan nan nan nan nan nan nan nan nan nan nan nan nan nan nan nan nan nan nan nan nan nan nan nan nan nan nan nan nan nan nan nan nan nan nan nan nan nan nan nan nan
Wind_Direction
nan nan nan nan nan nan 263 251 250 248 253 253 258 257 254 250 254 256 257 252 257 257 262 266 266 272 278 284 290 292 292 291 287 279 291 291 292 294 284 288 293 297 305
nan nan nan nan nan nan nan nan 270 273 256 245 249 253 255 257 255 260 263 263 264 262 263 269 274 271 276 279 281 286 287 287 282 272 282 291 300 296 298 295 299 302 307
nan nan nan nan nan nan nan nan nan 268 269 260 243 239 245 254 258 257 259 267 271 271 270 271 273 276 278 276 279 280 281 280 283 279 272 284 290 292 295 296 299 302 303
nan nan nan nan nan nan nan nan nan nan 262 253 251 250 251 256 260 260 262 258 265 269 269 270 269 274 277 276 275 278 277 280 282 283 281 281 286 290 293 291 295 297 304
nan nan nan nan nan nan nan nan nan nan nan nan nan nan 246 250 250 249 256 259 260 262 266 266 265 267 267 269 268 270 273 274 275 278 283 284 287 287 290 289 293 292 295
nan nan nan nan nan nan nan nan nan nan nan nan nan nan nan 251 247 254 253 254 254 251 257 259 265 266 262 262 268 270 278 276 279 280 280 283 284 283 283 288 288 282 283
nan nan nan nan nan nan nan nan nan nan nan nan nan nan nan nan nan 251 257 259 266 262 247 249 260 250 255 262 260 267 275 283 287 282 283 280 273 277 278 283 285 285 284
nan nan nan nan nan nan nan nan nan nan nan nan nan nan nan nan nan nan 254 265 271 277 282 266 nan nan nan 259 268 271 275 279 286 283 283 281 282 277 283 282 281 281 278
nan nan nan nan nan nan nan nan nan nan nan nan nan nan nan nan nan nan nan 264 272 280 285 285 nan nan nan 313 285 294 272 275 281 287 283 279 279 276 279 281 287 283 276
nan nan nan nan nan nan nan nan nan nan nan nan nan nan nan nan nan nan nan 263 270 274 280 286 294 301 297 nan nan 293 304 289 281 274 271 276 nan nan 286 282 279 280 281
nan nan nan nan nan nan nan nan nan nan nan nan nan nan nan nan nan nan nan 261 265 269 274 281 288 300 303 nan nan 303 290 280 279 nan nan nan nan nan nan 305 279 272 nan
nan nan nan nan nan nan nan nan nan nan nan nan nan nan nan nan nan nan nan 266 264 266 272 275 280 290 297 nan nan nan 290 278 nan nan nan nan nan 279 293 nan nan nan nan
nan nan nan nan nan nan nan nan nan nan nan nan nan nan nan nan nan nan 248 257 263 264 266 269 280 284 290 285 288 286 nan nan nan nan nan 246 nan 247 250 262 nan nan nan
nan nan nan nan nan nan nan nan nan nan nan nan nan nan nan nan 243 243 242 241 249 256 261 264 267 273 272 275 276 270 276 279 nan nan nan 254 nan nan nan nan nan nan nan
nan nan nan nan nan nan nan nan nan nan nan nan nan nan nan 234 235 238 239 240 246 254 256 257 260 261 265 266 268 265 nan nan nan nan nan nan nan nan nan nan 264 nan nan
nan nan nan nan nan nan nan nan nan nan nan nan nan nan 225 222 nan 225 237 243 250 258 250 253 255 258 258 257 256 259 nan nan nan nan nan nan nan nan nan nan nan nan nan
nan nan nan nan nan nan nan 276 270 256 239 225 219 219 206 206 204 228 233 238 245 243 242 244 247 253 253 253 nan nan nan nan nan nan nan nan nan nan nan nan nan nan nan
nan nan nan nan nan nan nan nan 249 227 221 213 221 228 223 226 221 230 238 239 238 240 242 245 246 246 246 nan nan nan nan 262 nan nan nan nan nan nan nan nan nan nan nan
nan nan nan nan nan nan nan 274 243 217 205 214 219 213 207 209 224 225 227 232 238 240 241 nan nan nan nan nan nan nan nan nan nan nan nan nan nan nan nan nan nan nan nan
nan nan nan nan nan nan nan nan nan nan nan 197 197 202 202 206 218 219 229 234 236 nan nan nan nan nan nan nan nan nan nan nan nan nan nan nan nan nan nan nan nan nan nan
nan nan nan nan nan nan nan nan nan nan nan nan nan nan nan nan nan 214 220 nan nan nan nan nan nan nan nan nan nan nan nan nan nan nan nan nan nan nan nan nan nan nan nan
nan nan nan nan nan nan nan nan nan nan nan nan nan nan nan nan nan nan nan nan nan nan nan nan nan nan nan nan nan nan nan nan nan nan nan nan nan nan nan nan nan nan nan
nan nan nan nan nan nan nan nan nan nan nan nan nan nan nan nan nan nan nan nan nan nan nan nan nan nan nan nan nan nan nan nan nan nan nan nan nan nan nan nan nan nan nan
nan nan nan nan nan nan nan nan nan nan nan nan nan nan nan nan nan nan nan nan nan nan nan nan nan nan nan nan nan nan nan nan nan nan nan nan nan nan nan nan nan nan nan
nan nan nan nan nan nan nan nan nan nan nan nan nan nan nan nan nan nan nan nan nan nan nan nan nan nan nan nan nan nan nan nan nan nan nan nan nan nan nan nan nan nan nan
nan nan nan nan nan nan nan nan nan nan nan nan nan nan nan nan nan nan nan nan nan nan nan nan nan nan nan nan nan nan nan nan nan nan nan nan nan nan nan nan nan nan nan